[[{"header":{"parameterUnit":"m.s-1","parameterCategory":2,"la1":30.2991,"la2":30.254,"lo1":-89.0895,"lo2":-89.0444,"dy":0.0017,"dx":0.0017,"nx":28,"ny":28,"refTime":"2023-08-12T09:00:00:Z","depth":"0","parameterNumber":2,"parameterNumberName":"U-component_of_CURRENTS"},"data":[0,0,0,0,0,0,0,0,0,0,0,0,0,0,0,0,0,0,0,0,0,0,0,0,0,0,0,0,0,0,0,0,0,0,0,0,0,0,0,0,0,0,0,0,0,0,0,0,0,0,0,0,0,0,0,0,0,0,-0.1584,-0.1584,0,-0.1568,-0.1567,-0.1566,-0.1532,-0.1532,-0.1532,-0.1532,-0.1611,-0.1613,-0.1615,0,0,0,0,0,0,0,0,0,0,0,0,0,-0.1586,-0.1586,-0.1584,-0.1584,-0.1585,-0.1568,-0.1567,-0.1566,-0.1532,-0.1532,-0.1532,-0.1532,-0.161,-0.1613,-0.1615,0,0,0,0,0,0,0,0,0,0,0,0,0,-0.1572,-0.1586,-0.1584,-0.1572,-0.1571,-0.1568,-0.1567,-0.1566,-0.1532,-0.1532,-0.1532,-0.1532,-0.161,-0.1613,-0.1616,-0.1634,0,0,-0.1625,-0.1627,0,0,0,0,0,0,0,0,-0.1573,-0.1571,-0.1573,-0.1573,-0.1572,-0.1559,-0.1597,-0.1596,-0.1532,-0.1539,-0.1532,-0.1532,-0.1608,-0.1611,-0.1595,-0.1638,-0.1642,-0.1626,-0.1627,-0.1629,-0.163,0,0,0,0,0,0,0,-0.1574,-0.1571,-0.157,-0.1574,-0.1573,-0.1568,-0.1565,-0.1596,-0.1569,-0.1538,-0.1538,-0.1548,-0.1607,-0.1592,-0.1597,-0.1643,-0.1625,-0.1628,-0.163,-0.1631,-0.171,-0.171,0,0,0,0,0,0,-0.1591,-0.1572,-0.157,-0.157,-0.1581,-0.1568,-0.1565,-0.1557,-0.1567,-0.157,-0.1548,-0.1547,-0.1587,-0.1594,-0.16,-0.1626,-0.1629,-0.1632,-0.1634,-0.171,-0.171,-0.171,0,0,0,0,0,0,-0.1591,-0.159,-0.1571,-0.1578,-0.1576,-0.1569,-0.156,-0.1556,-0.1543,-0.1574,-0.1577,-0.1539,-0.1587,-0.1596,-0.1639,-0.1629,-0.1633,-0.1636,-0.1709,-0.171,-0.171,-0.1676,0,0,0,0,0,0,-0.159,-0.1589,-0.1581,-0.1579,-0.1577,-0.1593,-0.1561,-0.1556,-0.1553,-0.1551,-0.1569,-0.1575,-0.1588,-0.1634,-0.1642,-0.1633,-0.1638,-0.1709,-0.171,-0.171,-0.1677,-0.1675,-0.1674,0,0,0,0,0,-0.159,-0.1582,-0.158,-0.1581,-0.1568,-0.1596,-0.1594,-0.1584,-0.1553,-0.1565,-0.1569,-0.1575,-0.1641,-0.1638,-0.1646,-0.1638,-0.1709,-0.1709,-0.171,-0.1678,-0.1675,-0.1674,0,0,0,0,0,0,-0.1571,-0.1579,-0.1576,-0.1568,-0.1595,-0.1593,-0.1596,-0.1584,-0.1588,-0.1582,-0.159,-0.1599,-0.1624,-0.1645,-0.164,-0.1662,-0.1671,-0.1674,-0.1644,-0.1642,-0.164,-0.1619,-0.1641,0,0,0,0,0,-0.1567,-0.1558,-0.1586,-0.1576,-0.1596,-0.1593,-0.1596,-0.1596,-0.1606,-0.1603,-0.1617,-0.1627,-0.1631,-0.165,-0.1669,-0.1696,-0.1677,-0.1693,-0.1692,-0.169,-0.1679,-0.1643,-0.1636,-0.1712,-0.1712,-0.1712,0,0,-0.1548,-0.1557,-0.1546,-0.1572,-0.1582,-0.1599,-0.1592,-0.1611,-0.1608,-0.1617,-0.1619,-0.1629,-0.1638,-0.1655,-0.1668,-0.1674,-0.1659,-0.1691,-0.1689,-0.1679,-0.1642,-0.1634,-0.1627,-0.1712,-0.1712,-0.1712,0,0,-0.1521,-0.1529,-0.1522,-0.1551,-0.1589,-0.1602,-0.1612,-0.163,-0.1629,-0.1651,-0.1633,-0.1638,-0.1673,-0.166,-0.1658,-0.1664,-0.1649,-0.1673,-0.1651,-0.1616,-0.1609,-0.1602,-0.1563,-0.1553,-0.1675,-0.1675,-0.1675,0,-0.1503,-0.1494,-0.1528,-0.1545,-0.1555,-0.1603,-0.1606,-0.1621,-0.1646,-0.1639,-0.1659,-0.1647,-0.1665,-0.1637,-0.1635,-0.1657,-0.1634,-0.1655,-0.1611,-0.1604,-0.1598,-0.1559,-0.1549,-0.1673,-0.1674,-0.1674,-0.1674,0,-0.1479,-0.1479,-0.1488,-0.1514,-0.1535,-0.1557,-0.1599,-0.1623,-0.1631,-0.1631,-0.1629,-0.1646,-0.1632,-0.1636,-0.1639,-0.1596,-0.1593,-0.1607,-0.1609,-0.1587,-0.1549,-0.1539,-0.1671,-0.1672,-0.1672,-0.1673,0,0,-0.1416,-0.1459,-0.146,-0.1465,-0.1521,-0.1536,-0.1557,-0.1579,-0.1567,-0.1606,-0.1576,-0.1583,-0.1584,-0.158,-0.1581,-0.1556,-0.1494,-0.1562,-0.1561,-0.151,-0.1405,-0.1365,-0.1349,-0.1496,-0.1495,-0.1493,-0.1394,0,-0.1389,-0.1402,-0.1423,-0.1426,-0.1443,-0.1489,-0.1495,-0.1519,-0.1544,-0.1546,-0.1556,-0.154,-0.1565,-0.155,-0.153,-0.1503,-0.1466,-0.1519,-0.1445,-0.1443,-0.1398,-0.1336,-0.1287,-0.119,-0.1383,-0.1382,-0.138,0,-0.1363,-0.1373,-0.1372,-0.1385,-0.1392,-0.1396,-0.1411,-0.1424,-0.1449,-0.1462,-0.1463,-0.1475,-0.1447,-0.1477,-0.1412,-0.1444,-0.1415,-0.1399,-0.1395,-0.1359,-0.1382,-0.1246,-0.1164,-0.1059,-0.1364,-0.1365,-0.1367,0,-0.1317,-0.1335,-0.1328,-0.1337,-0.1365,-0.1356,-0.1368,-0.139,-0.1396,-0.1405,-0.1403,-0.1389,-0.1375,-0.1347,-0.1326,-0.136,-0.1248,-0.1294,-0.1226,-0.1224,-0.1167,-0.1162,-0.0963,-0.1227,-0.1228,-0.1228,-0.1228,0,-0.1287,-0.1274,-0.1307,-0.1304,-0.1286,-0.1311,-0.1293,-0.1312,-0.1326,-0.1319,-0.1349,-0.1341,-0.134,-0.1296,-0.1285,-0.1208,-0.121,-0.1194,-0.1184,-0.1155,-0.1151,-0.1049,-0.1116,-0.1224,-0.1225,-0.1226,-0.1226,0,-0.123,-0.1258,-0.125,-0.1265,-0.127,-0.1255,-0.1265,-0.1252,-0.127,-0.1264,-0.1263,-0.1281,-0.1218,-0.1192,-0.1132,-0.1137,-0.1055,-0.105,-0.1013,-0.1,-0.0868,-0.094,-0.089,-0.0859,-0.0966,-0.0964,-0.0962,0,-0.1203,-0.12,-0.122,-0.1216,-0.1217,-0.1211,-0.1205,-0.1228,-0.1222,-0.1233,-0.122,-0.117,-0.1142,-0.1034,-0.1004,-0.0931,-0.0946,-0.0853,-0.0914,-0.0815,-0.0888,-0.0987,-0.0972,-0.0826,-0.0824,-0.0822,-0.082,0,-0.1139,-0.1151,-0.1141,-0.1146,-0.1139,-0.1136,-0.1132,-0.1125,-0.1146,-0.1139,-0.1127,-0.1105,-0.1027,-0.0949,-0.085,-0.0812,-0.0839,-0.081,-0.0707,-0.0752,-0.0848,-0.0827,-0.0941,-0.0802,-0.0804,-0.0805,-0.0806,-0.0807,-0.1089,-0.1068,-0.1069,-0.1055,-0.1056,-0.1041,-0.1005,-0.1009,-0.0989,-0.0945,-0.1016,-0.0933,-0.0894,-0.0765,-0.0692,-0.0534,-0.0713,-0.052,-0.0611,-0.0711,-0.0692,-0.076,-0.0617,-0.0618,-0.0619,-0.0619,-0.062,0,-0.1027,-0.1001,-0.0981,-0.096,-0.093,-0.0963,-0.0934,-0.0881,-0.0826,-0.0801,-0.0784,-0.0698,-0.059,-0.0491,-0.0384,-0.0335,-0.037,-0.0308,-0.0404,-0.0394,-0.0404,-0.0398,-0.02,-0.02,-0.0201,-0.0201,-0.0201,-0.0201,-0.0992,-0.094,-0.0916,-0.0838,-0.0829,-0.0761,-0.0732,-0.0669,-0.0617,-0.0497,-0.0422,-0.0406,-0.031,-0.0314,-0.0163,-0.0149,-0.0158,-0.0246,-0.0249,-0.0207,-0.0232,-0.0256,-0.0252,-0.0026,-0.0027,-0.017,-0.0172,-0.0173]},{"header":{"parameterUnit":"m.s-1","parameterCategory":2,"la1":30.2991,"la2":30.254,"lo1":-89.0895,"lo2":-89.0444,"dy":0.0017,"dx":0.0017,"nx":28,"ny":28,"refTime":"2023-08-12T09:00:00:Z","depth":"0","parameterNumber":3,"parameterNumberName":"V-component_of_CURRENTS"},"data":[0,0,0,0,0,0,0,0,0,0,0,0,0,0,0,0,0,0,0,0,0,0,0,0,0,0,0,0,0,0,0,0,0,0,0,0,0,0,0,0,0,0,0,0,0,0,0,0,0,0,0,0,0,0,0,0,0,0,-0.1277,-0.1277,0,-0.1305,-0.1306,-0.1306,-0.1302,-0.1301,-0.1301,-0.13,-0.1257,-0.1256,-0.1255,0,0,0,0,0,0,0,0,0,0,0,0,0,-0.1203,-0.1204,-0.1277,-0.1277,-0.1278,-0.1305,-0.1306,-0.1306,-0.1302,-0.1301,-0.1301,-0.13,-0.1257,-0.1256,-0.1255,0,0,0,0,0,0,0,0,0,0,0,0,0,-0.1233,-0.1205,-0.1277,-0.128,-0.128,-0.1305,-0.1306,-0.1306,-0.1302,-0.1301,-0.1301,-0.13,-0.1257,-0.1256,-0.1255,-0.126,0,0,-0.1251,-0.1251,0,0,0,0,0,0,0,0,-0.1231,-0.1236,-0.1279,-0.1279,-0.128,-0.13,-0.1264,-0.1287,-0.1302,-0.1293,-0.13,-0.13,-0.1265,-0.1263,-0.127,-0.1258,-0.1257,-0.1251,-0.125,-0.125,-0.125,0,0,0,0,0,0,0,-0.1229,-0.1234,-0.1288,-0.1279,-0.128,-0.1274,-0.1277,-0.1268,-0.128,-0.1294,-0.1294,-0.1298,-0.1265,-0.1272,-0.1269,-0.1256,-0.1251,-0.125,-0.1249,-0.1249,-0.1224,-0.1224,0,0,0,0,0,0,-0.1229,-0.1233,-0.1287,-0.1289,-0.1254,-0.1276,-0.128,-0.1294,-0.1282,-0.1281,-0.1298,-0.1298,-0.1274,-0.127,-0.1267,-0.1242,-0.125,-0.1249,-0.1248,-0.1224,-0.1224,-0.1224,0,0,0,0,0,0,-0.1227,-0.1234,-0.1286,-0.1261,-0.1267,-0.1278,-0.1293,-0.1295,-0.1295,-0.1287,-0.1283,-0.1297,-0.1273,-0.1269,-0.126,-0.1241,-0.1248,-0.1247,-0.1224,-0.1224,-0.1224,-0.121,0,0,0,0,0,0,-0.1225,-0.1233,-0.1239,-0.1261,-0.1269,-0.1283,-0.1294,-0.1296,-0.13,-0.1299,-0.1284,-0.128,-0.1272,-0.1262,-0.1259,-0.1239,-0.1246,-0.1224,-0.1224,-0.1224,-0.1211,-0.121,-0.1209,0,0,0,0,0,-0.1223,-0.1228,-0.124,-0.1246,-0.1278,-0.1283,-0.1285,-0.129,-0.13,-0.1291,-0.1296,-0.128,-0.126,-0.1262,-0.1258,-0.1237,-0.1224,-0.1224,-0.1224,-0.1211,-0.121,-0.1209,0,0,0,0,0,0,-0.1196,-0.1229,-0.1242,-0.1257,-0.1263,-0.1282,-0.1279,-0.1289,-0.1289,-0.1287,-0.1286,-0.1282,-0.1264,-0.126,-0.1262,-0.1232,-0.1237,-0.1237,-0.1229,-0.1228,-0.1227,-0.1226,-0.1245,0,0,0,0,0,-0.1197,-0.1209,-0.1233,-0.1242,-0.1248,-0.1266,-0.127,-0.1272,-0.1278,-0.1278,-0.127,-0.1266,-0.1264,-0.1254,-0.1245,-0.1232,-0.1232,-0.1216,-0.1215,-0.1215,-0.1213,-0.1211,-0.121,-0.1224,-0.1224,-0.1224,0,0,-0.1188,-0.1208,-0.1214,-0.1237,-0.1248,-0.1246,-0.1266,-0.1264,-0.126,-0.1272,-0.1258,-0.126,-0.1262,-0.1246,-0.1237,-0.1237,-0.121,-0.1215,-0.1214,-0.1212,-0.1211,-0.121,-0.1209,-0.1224,-0.1224,-0.1224,0,0,-0.1172,-0.1197,-0.12,-0.1202,-0.1213,-0.1225,-0.1224,-0.1234,-0.1236,-0.1229,-0.1241,-0.1237,-0.1223,-0.1223,-0.1224,-0.1216,-0.1208,-0.121,-0.1199,-0.1198,-0.1197,-0.1196,-0.1189,-0.1188,-0.1207,-0.1206,-0.1206,0,-0.1156,-0.1174,-0.1196,-0.1193,-0.1198,-0.1215,-0.1211,-0.1213,-0.1215,-0.1224,-0.1214,-0.122,-0.1211,-0.1217,-0.1212,-0.121,-0.1213,-0.1201,-0.1196,-0.1195,-0.1194,-0.1188,-0.1187,-0.1206,-0.1206,-0.1206,-0.1206,0,-0.1146,-0.115,-0.1148,-0.1158,-0.1162,-0.1158,-0.117,-0.1173,-0.118,-0.1183,-0.1183,-0.1181,-0.1187,-0.118,-0.1191,-0.1186,-0.119,-0.1197,-0.1197,-0.1192,-0.1186,-0.1185,-0.1205,-0.1205,-0.1205,-0.1205,0,0,-0.1132,-0.1141,-0.114,-0.1142,-0.1147,-0.1152,-0.1154,-0.117,-0.1183,-0.1163,-0.1175,-0.1164,-0.1168,-0.1171,-0.118,-0.1174,-0.1163,-0.1182,-0.1182,-0.1173,-0.116,-0.1172,-0.1171,-0.1173,-0.1173,-0.1173,-0.1157,0,-0.1117,-0.1113,-0.1125,-0.1115,-0.1113,-0.1136,-0.1143,-0.1154,-0.1162,-0.1167,-0.1166,-0.1166,-0.1163,-0.1169,-0.1161,-0.1165,-0.116,-0.1167,-0.117,-0.117,-0.1178,-0.117,-0.1078,-0.1058,-0.1156,-0.1156,-0.1156,0,-0.1101,-0.1105,-0.11,-0.1113,-0.1119,-0.1115,-0.1154,-0.1161,-0.1176,-0.1182,-0.1181,-0.1177,-0.1166,-0.1164,-0.1152,-0.1159,-0.1159,-0.1156,-0.1156,-0.1171,-0.1178,-0.108,-0.1052,-0.0809,-0.1154,-0.1154,-0.1154,0,-0.1089,-0.1087,-0.1092,-0.1089,-0.1104,-0.1118,-0.1137,-0.1161,-0.118,-0.1188,-0.1191,-0.118,-0.117,-0.1163,-0.1146,-0.1153,-0.1132,-0.1141,-0.1151,-0.1152,-0.1076,-0.107,-0.081,-0.1138,-0.1138,-0.1138,-0.1138,0,-0.107,-0.1065,-0.1083,-0.1079,-0.1093,-0.1111,-0.1133,-0.1157,-0.1181,-0.1193,-0.1193,-0.1193,-0.1169,-0.1153,-0.1146,-0.1136,-0.1129,-0.1147,-0.1149,-0.1069,-0.1064,-0.0854,-0.0734,-0.1137,-0.1138,-0.1138,-0.1138,0,-0.1038,-0.1051,-0.1048,-0.107,-0.1079,-0.1089,-0.1127,-0.1149,-0.1173,-0.1189,-0.1189,-0.1191,-0.1176,-0.1155,-0.1138,-0.1134,-0.1001,-0.1131,-0.1036,-0.1029,-0.0834,-0.0719,-0.0583,-0.0478,-0.1141,-0.1141,-0.1141,0,-0.101,-0.1009,-0.1037,-0.1043,-0.1046,-0.1068,-0.1094,-0.1137,-0.1159,-0.1189,-0.1194,-0.1186,-0.119,-0.1165,-0.1144,-0.1129,-0.0972,-0.1038,-0.1041,-0.0798,-0.0671,-0.0653,-0.0572,-0.0925,-0.0923,-0.0922,-0.0921,0,-0.0949,-0.0972,-0.098,-0.1005,-0.1023,-0.1052,-0.1084,-0.1104,-0.1158,-0.1178,-0.12,-0.1206,-0.1192,-0.1158,-0.1138,-0.1088,-0.0829,-0.1015,-0.0767,-0.0482,-0.0437,-0.0346,-0.0955,-0.0909,-0.091,-0.0911,-0.0912,-0.0912,-0.089,-0.0898,-0.0926,-0.0949,-0.0981,-0.1017,-0.1028,-0.1076,-0.1114,-0.1141,-0.1188,-0.1204,-0.1131,-0.1106,-0.1017,-0.0702,-0.0778,-0.0593,-0.0476,-0.0486,-0.036,-0.0956,-0.092,-0.0921,-0.0922,-0.0923,-0.0923,0,-0.0797,-0.0836,-0.0865,-0.0899,-0.0927,-0.0963,-0.1009,-0.1014,-0.1042,-0.1108,-0.1142,-0.111,-0.0954,-0.0779,-0.0433,-0.018,-0.0128,-0.0002,0.0128,0.0179,-0.0328,-0.0288,-0.0105,-0.0106,-0.0106,-0.0106,-0.0106,-0.0107,-0.0744,-0.0758,-0.0801,-0.0825,-0.0859,-0.0874,-0.0887,-0.0909,-0.0945,-0.0965,-0.099,-0.102,-0.0651,-0.0059,0.0457,0.0515,0.0762,0.0709,0.08,0.0575,0.0531,0.049,0.0559,0.0916,0.0918,0.1286,0.1291,0.1295]}],[{"header":{"parameterUnit":"m.s-1","parameterCategory":2,"la1":30.2991,"la2":30.254,"lo1":-89.0895,"lo2":-89.0444,"dy":0.0017,"dx":0.0017,"nx":28,"ny":28,"refTime":"2023-08-12T09:00:00:Z","depth":"2","parameterNumber":2,"parameterNumberName":"U-component_of_CURRENTS"},"data":[0,0,0,0,0,0,0,0,0,0,0,0,0,0,0,0,0,0,0,0,0,0,0,0,0,0,0,0,0,0,0,0,0,0,0,0,0,0,0,0,0,0,0,0,0,0,0,0,0,0,0,0,0,0,0,0,0,0,-0.3112,-0.3113,0,-0.3069,-0.3068,-0.3066,-0.3047,-0.3048,-0.3049,-0.305,-0.3056,-0.3055,-0.3054,0,0,0,0,0,0,0,0,0,0,0,0,0,-0.272,-0.2729,-0.3112,-0.3113,-0.3113,-0.307,-0.3068,-0.3066,-0.3046,-0.3048,-0.3049,-0.3051,-0.3056,-0.3055,-0.3054,0,0,0,0,0,0,0,0,0,0,0,0,0,-0.2794,-0.2732,-0.3112,-0.3108,-0.3108,-0.307,-0.3068,-0.3065,-0.3046,-0.3048,-0.305,-0.3052,-0.3057,-0.3055,-0.3054,-0.3007,0,0,-0.3049,-0.3048,0,0,0,0,0,0,0,0,-0.279,-0.2807,-0.3108,-0.3109,-0.3109,-0.3077,-0.2932,-0.3053,-0.3046,-0.3056,-0.305,-0.3052,-0.3075,-0.3072,-0.304,-0.3007,-0.3007,-0.3049,-0.3048,-0.3047,-0.3047,0,0,0,0,0,0,0,-0.2786,-0.2806,-0.3082,-0.3109,-0.311,-0.2953,-0.2968,-0.2951,-0.3046,-0.3055,-0.3057,-0.3072,-0.3074,-0.3041,-0.304,-0.3007,-0.3049,-0.3048,-0.3047,-0.3046,-0.2986,-0.2986,0,0,0,0,0,0,-0.2842,-0.2805,-0.3083,-0.3082,-0.2966,-0.2962,-0.2977,-0.3074,-0.3045,-0.3046,-0.3071,-0.3072,-0.3043,-0.3042,-0.3041,-0.3027,-0.3047,-0.3046,-0.3045,-0.2987,-0.2986,-0.2986,0,0,0,0,0,0,-0.2835,-0.287,-0.3085,-0.2945,-0.2964,-0.2971,-0.3076,-0.3073,-0.3082,-0.3059,-0.3058,-0.3091,-0.3044,-0.3043,-0.3062,-0.3026,-0.3045,-0.3044,-0.2988,-0.2987,-0.2986,-0.2973,0,0,0,0,0,0,-0.2825,-0.287,-0.2949,-0.2954,-0.2976,-0.3085,-0.3076,-0.3071,-0.3093,-0.3094,-0.3075,-0.3075,-0.3046,-0.3065,-0.3061,-0.3025,-0.3043,-0.2989,-0.2987,-0.2986,-0.2974,-0.2972,-0.297,0,0,0,0,0,-0.2812,-0.2926,-0.2955,-0.2988,-0.3092,-0.3087,-0.3081,-0.3076,-0.3093,-0.3091,-0.3093,-0.3077,-0.3053,-0.3064,-0.3059,-0.3022,-0.2989,-0.2988,-0.2986,-0.2976,-0.2972,-0.297,0,0,0,0,0,0,-0.2774,-0.2936,-0.2968,-0.3123,-0.3115,-0.309,-0.3102,-0.3099,-0.3092,-0.3112,-0.3086,-0.3085,-0.3073,-0.3064,-0.3078,-0.3001,-0.301,-0.3008,-0.3004,-0.3001,-0.2998,-0.2968,-0.3041,0,0,0,0,0,-0.2815,-0.297,-0.3016,-0.3131,-0.3139,-0.3123,-0.3124,-0.3124,-0.3123,-0.3122,-0.3111,-0.3093,-0.305,-0.305,-0.3017,-0.2998,-0.2941,-0.2966,-0.2963,-0.2961,-0.2934,-0.2822,-0.2806,-0.2981,-0.2981,-0.2981,0,0,-0.2809,-0.2941,-0.3008,-0.3135,-0.313,-0.3124,-0.3126,-0.3148,-0.3128,-0.3125,-0.3114,-0.3092,-0.3046,-0.3005,-0.2998,-0.3005,-0.2886,-0.2959,-0.2958,-0.293,-0.2819,-0.2801,-0.2786,-0.298,-0.298,-0.298,0,0,-0.2856,-0.3008,-0.3112,-0.3124,-0.3177,-0.3159,-0.3179,-0.3173,-0.3159,-0.3145,-0.3121,-0.3088,-0.3057,-0.2991,-0.2956,-0.2927,-0.2875,-0.2928,-0.2892,-0.2785,-0.2769,-0.2754,-0.2675,-0.2653,-0.2929,-0.2929,-0.2929,0,-0.2856,-0.3005,-0.311,-0.3171,-0.3168,-0.3182,-0.3176,-0.3156,-0.3153,-0.3121,-0.3151,-0.3041,-0.3024,-0.2919,-0.2907,-0.2913,-0.2863,-0.2908,-0.2779,-0.2763,-0.2747,-0.2669,-0.2645,-0.2928,-0.2928,-0.2929,-0.2929,0,-0.2918,-0.3024,-0.3068,-0.3176,-0.3171,-0.3183,-0.3165,-0.3157,-0.3152,-0.311,-0.3036,-0.2996,-0.2919,-0.2906,-0.2898,-0.2776,-0.2779,-0.2785,-0.2782,-0.2728,-0.2651,-0.2626,-0.2927,-0.2927,-0.2928,-0.2928,0,0,-0.2986,-0.3096,-0.3118,-0.3119,-0.3176,-0.3162,-0.3144,-0.309,-0.3048,-0.3025,-0.2935,-0.2863,-0.284,-0.2798,-0.2776,-0.2694,-0.2559,-0.2704,-0.2698,-0.2617,-0.2337,-0.2278,-0.2245,-0.2547,-0.2542,-0.2539,-0.2331,0,-0.2996,-0.3083,-0.3135,-0.3127,-0.3131,-0.3125,-0.3083,-0.3041,-0.3004,-0.2928,-0.2856,-0.278,-0.2798,-0.2765,-0.2677,-0.2586,-0.249,-0.2615,-0.2406,-0.2399,-0.2346,-0.2212,-0.211,-0.191,-0.2306,-0.2302,-0.2299,0,-0.3044,-0.3099,-0.3096,-0.3086,-0.308,-0.3054,-0.2978,-0.2947,-0.2856,-0.2826,-0.2746,-0.2705,-0.2581,-0.2613,-0.2398,-0.2482,-0.2398,-0.2334,-0.2324,-0.2247,-0.2291,-0.2024,-0.1849,-0.2257,-0.226,-0.2263,-0.2266,0,-0.302,-0.3073,-0.306,-0.3058,-0.3038,-0.2999,-0.2972,-0.2903,-0.2844,-0.2764,-0.2703,-0.2583,-0.2492,-0.2375,-0.2264,-0.2321,-0.2023,-0.2082,-0.1941,-0.1938,-0.1793,-0.1784,-0.1894,-0.1894,-0.1895,-0.1896,-0.1896,0,-0.3042,-0.303,-0.3036,-0.3022,-0.2949,-0.2959,-0.2866,-0.2835,-0.2756,-0.2658,-0.2642,-0.2528,-0.2424,-0.2267,-0.2195,-0.1968,-0.1955,-0.1877,-0.1849,-0.1791,-0.1785,-0.2049,-0.207,-0.1888,-0.1889,-0.1891,-0.1892,0,-0.3005,-0.3037,-0.2996,-0.2961,-0.2937,-0.2879,-0.2804,-0.2737,-0.2697,-0.2569,-0.2542,-0.2425,-0.2236,-0.2122,-0.1909,-0.1843,-0.1674,-0.1604,-0.156,-0.1529,-0.1687,-0.171,-0.1408,-0.1403,-0.1399,-0.1396,-0.1393,0,-0.2979,-0.2961,-0.2917,-0.2881,-0.2854,-0.2785,-0.2727,-0.2698,-0.2636,-0.2493,-0.2412,-0.2226,-0.207,-0.1748,-0.1603,-0.1415,-0.1506,-0.1224,-0.13,-0.1617,-0.1622,-0.1651,-0.1678,-0.1113,-0.1108,-0.1104,-0.1101,0,-0.2866,-0.2856,-0.2821,-0.2756,-0.2699,-0.2649,-0.2581,-0.2532,-0.2482,-0.2377,-0.2211,-0.2083,-0.1781,-0.1531,-0.1305,-0.1184,-0.1258,-0.1139,-0.1395,-0.1276,-0.1327,-0.1338,-0.1375,-0.1066,-0.107,-0.1072,-0.1074,-0.1076,-0.2737,-0.2689,-0.2647,-0.2582,-0.2533,-0.2496,-0.2425,-0.2382,-0.2276,-0.2086,-0.2026,-0.1764,-0.1621,-0.1216,-0.1057,-0.0897,-0.099,-0.0939,-0.0954,-0.0974,-0.1,-0.1044,-0.0735,-0.0737,-0.0738,-0.0739,-0.074,0,-0.2546,-0.2514,-0.2462,-0.2389,-0.2322,-0.2343,-0.2285,-0.2197,-0.2055,-0.1915,-0.1732,-0.1382,-0.1175,-0.1019,-0.0749,-0.0656,-0.0671,-0.0592,-0.0662,-0.0694,-0.0723,-0.0744,-0.0407,-0.0406,-0.0406,-0.0405,0,0,-0.2436,-0.2343,-0.2349,-0.2195,-0.2143,-0.2015,-0.1981,-0.1876,-0.1769,-0.1489,-0.1299,-0.1234,-0.1112,-0.0867,-0.0722,-0.0559,-0.0642,-0.0492,-0.0757,-0.0884,-0.0915,-0.0903,-0.0966,0,0,0,0,0]},{"header":{"parameterUnit":"m.s-1","parameterCategory":2,"la1":30.2991,"la2":30.254,"lo1":-89.0895,"lo2":-89.0444,"dy":0.0017,"dx":0.0017,"nx":28,"ny":28,"refTime":"2023-08-12T09:00:00:Z","depth":"2","parameterNumber":3,"parameterNumberName":"V-component_of_CURRENTS"},"data":[0,0,0,0,0,0,0,0,0,0,0,0,0,0,0,0,0,0,0,0,0,0,0,0,0,0,0,0,0,0,0,0,0,0,0,0,0,0,0,0,0,0,0,0,0,0,0,0,0,0,0,0,0,0,0,0,0,0,0.0366,0.0369,0,0.0506,0.0506,0.0507,0.0612,0.0614,0.0616,0.0618,0.1065,0.1074,0.1084,0,0,0,0,0,0,0,0,0,0,0,0,0,0.0035,0.004,0.0366,0.0369,0.0372,0.0506,0.0506,0.0507,0.0612,0.0614,0.0617,0.0619,0.1061,0.1073,0.1085,0,0,0,0,0,0,0,0,0,0,0,0,0,0.0165,0.0042,0.0366,0.0449,0.0459,0.0506,0.0507,0.0507,0.0611,0.0614,0.0617,0.062,0.1057,0.1072,0.1087,0.1116,0,0,0.1132,0.1139,0,0,0,0,0,0,0,0,0.0158,0.0176,0.0434,0.0444,0.0455,0.0556,0.0554,0.0731,0.061,0.054,0.0618,0.0622,0.0929,0.0954,0.0951,0.1137,0.1156,0.1134,0.1143,0.1149,0.1153,0,0,0,0,0,0,0,0.0149,0.017,0.0409,0.0437,0.045,0.0428,0.045,0.0585,0.0711,0.0546,0.0558,0.0592,0.0935,0.0936,0.0964,0.1162,0.1133,0.1146,0.1156,0.1161,0.1539,0.154,0,0,0,0,0,0,0.0163,0.0162,0.0405,0.0414,0.0325,0.0433,0.0457,0.051,0.0703,0.0737,0.0589,0.0597,0.0909,0.0946,0.0981,0.1137,0.1149,0.1163,0.1171,0.1538,0.1539,0.154,0,0,0,0,0,0,0.0155,0.0183,0.0399,0.0299,0.0327,0.0438,0.0495,0.0511,0.058,0.0735,0.0772,0.0651,0.0913,0.096,0.1163,0.1153,0.117,0.1183,0.1536,0.1538,0.154,0.1383,0,0,0,0,0,0,0.0145,0.018,0.022,0.0302,0.0334,0.0468,0.0494,0.0512,0.0599,0.0611,0.08,0.0839,0.0919,0.114,0.1178,0.1173,0.1195,0.1535,0.1537,0.1539,0.1386,0.1379,0.1372,0,0,0,0,0,0.0133,0.0188,0.0221,0.0251,0.0387,0.0471,0.0484,0.0561,0.06,0.0632,0.0772,0.0837,0.1178,0.1155,0.1198,0.1197,0.1534,0.1537,0.1539,0.139,0.138,0.1372,0,0,0,0,0,0,0.0064,0.0207,0.0245,0.0341,0.0418,0.0495,0.0534,0.0589,0.0711,0.0744,0.0882,0.0932,0.1093,0.1186,0.1156,0.1313,0.1355,0.1366,0.1226,0.1219,0.1212,0.1159,0.1207,0,0,0,0,0,0.0066,0.0153,0.0261,0.0339,0.0376,0.0458,0.0505,0.0562,0.0679,0.0733,0.0868,0.1007,0.1119,0.1208,0.133,0.1443,0.1474,0.1464,0.1457,0.145,0.1438,0.1477,0.147,0.1548,0.1548,0.1548,0,0,0.0043,0.0153,0.0188,0.0331,0.0386,0.0438,0.0493,0.0579,0.0627,0.0771,0.0901,0.1011,0.1151,0.1255,0.1332,0.1345,0.144,0.1453,0.1445,0.1438,0.1478,0.147,0.1463,0.155,0.155,0.1549,0,0,0.0053,0.0152,0.0216,0.0283,0.0407,0.0454,0.0495,0.0604,0.0659,0.0788,0.0884,0.1002,0.1196,0.1262,0.1323,0.1366,0.1407,0.1399,0.1317,0.1353,0.1346,0.1339,0.1332,0.1326,0.1385,0.1385,0.1385,0,0.0033,0.0133,0.0239,0.0315,0.0365,0.0468,0.0512,0.0569,0.0735,0.0773,0.083,0.1046,0.1181,0.1263,0.1259,0.1344,0.1353,0.1327,0.1336,0.1332,0.1328,0.1322,0.1318,0.1378,0.1379,0.1379,0.138,0,0.007,0.0152,0.0193,0.0321,0.0382,0.0444,0.0535,0.0603,0.0681,0.0733,0.0852,0.0995,0.1107,0.1153,0.1223,0.1251,0.1259,0.1321,0.1337,0.1309,0.1306,0.1304,0.1367,0.137,0.1372,0.1374,0,0,0.0044,0.0187,0.0207,0.0246,0.0391,0.0439,0.0509,0.0584,0.0616,0.0733,0.0766,0.092,0.0964,0.1036,0.1123,0.1153,0.1129,0.1204,0.1209,0.1157,0.116,0.1086,0.1078,0.1174,0.1174,0.1174,0.1153,0,0.0046,0.0147,0.023,0.0295,0.034,0.043,0.0476,0.0556,0.0629,0.0686,0.0774,0.0856,0.0925,0.0965,0.0999,0.1122,0.1123,0.1126,0.1231,0.1234,0.114,0.1074,0.1163,0.1145,0.1152,0.1151,0.1151,0,0.007,0.0137,0.0181,0.0276,0.03,0.0328,0.0401,0.0464,0.0544,0.0596,0.065,0.0735,0.0799,0.0864,0.0974,0.0964,0.1034,0.1109,0.1112,0.1097,0.1157,0.119,0.1143,0.1149,0.1149,0.1149,0.115,0,0.0005,0.0116,0.0138,0.017,0.0273,0.0278,0.0327,0.0414,0.0458,0.052,0.0549,0.0632,0.0686,0.0773,0.0907,0.094,0.1008,0.109,0.1076,0.1071,0.1197,0.1202,0.1139,0.1139,0.1139,0.1139,0.1139,0,-0.0001,0.0027,0.0086,0.0095,0.0106,0.0198,0.0213,0.0274,0.0342,0.0379,0.0475,0.0511,0.0667,0.0735,0.0848,0.092,0.0955,0.1029,0.1055,0.1142,0.1142,0.1209,0.1217,0.1138,0.1139,0.1139,0.1139,0,-0.0061,-0.0012,0.001,0.0062,0.0074,0.0072,0.0141,0.016,0.0227,0.0271,0.0284,0.041,0.0487,0.061,0.0763,0.0841,0.0934,0.0953,0.1005,0.1036,0.0986,0.0987,0.0935,0.0932,0.093,0.0928,0.0926,0,-0.0081,-0.0085,-0.0051,-0.0052,-0.0041,-0.0028,-0.0007,0.0081,0.0113,0.0215,0.023,0.0304,0.0358,0.0498,0.0718,0.0847,0.0833,0.0922,0.101,0.093,0.0963,0.0968,0.0972,0.112,0.112,0.112,0.112,0,-0.0145,-0.0147,-0.0139,-0.0149,-0.0149,-0.0119,-0.009,-0.0086,0.0022,0.0043,0.0086,0.0124,0.034,0.0541,0.0699,0.0795,0.0906,0.092,0.0855,0.1129,0.1096,0.113,0.1131,0.112,0.112,0.112,0.112,0.112,-0.0214,-0.0231,-0.0236,-0.0244,-0.0231,-0.0222,-0.0224,-0.0191,-0.0178,-0.0116,-0.0046,0.0089,0.0338,0.0646,0.0731,0.0878,0.0934,0.0965,0.097,0.0974,0.0971,0.0932,0.0923,0.0922,0.0921,0.092,0.092,0,-0.0307,-0.0308,-0.0322,-0.033,-0.0348,-0.03,-0.0274,-0.0283,-0.0308,-0.0161,-0.0128,0.0122,0.0387,0.061,0.093,0.1015,0.1073,0.0917,0.1032,0.1035,0.1037,0.104,0.1009,0.1007,0.1006,0.1005,0,0,-0.0356,-0.0398,-0.0398,-0.0448,-0.0445,-0.0455,-0.0451,-0.0454,-0.0344,-0.0292,-0.0091,0.0168,0.0521,0.0684,0.0823,0.094,0.0922,0.0908,0.0859,0.0987,0.0985,0.112,0.1134,0,0,0,0,0]}],[{"header":{"parameterUnit":"m.s-1","parameterCategory":2,"la1":30.2991,"la2":30.254,"lo1":-89.0895,"lo2":-89.0444,"dy":0.0017,"dx":0.0017,"nx":28,"ny":28,"refTime":"2023-08-12T09:00:00:Z","depth":"4","parameterNumber":2,"parameterNumberName":"U-component_of_CURRENTS"},"data":[0,0,0,0,0,0,0,0,0,0,0,0,0,0,0,0,0,0,0,0,0,0,0,0,0,0,0,0,0,0,0,0,0,0,0,0,0,0,0,0,0,0,0,0,0,0,0,0,0,0,0,0,0,0,0,0,0,0,-0.1238,-0.1238,0,-0.128,-0.1281,-0.1281,-0.133,-0.1331,-0.1331,-0.1332,-0.1401,-0.1402,-0.1403,0,0,0,0,0,0,0,0,0,0,0,0,0,-0.1226,-0.1226,-0.1238,-0.1238,-0.1239,-0.128,-0.1281,-0.1281,-0.133,-0.1331,-0.1331,-0.1332,-0.1401,-0.1402,-0.1404,0,0,0,0,0,0,0,0,0,0,0,0,0,-0.1247,-0.1226,-0.1238,-0.1267,-0.127,-0.128,-0.1281,-0.1282,-0.133,-0.1331,-0.1332,-0.1333,-0.14,-0.1402,-0.1404,-0.1396,0,0,-0.1409,-0.141,0,0,0,0,0,0,0,0,-0.1246,-0.1248,-0.1263,-0.1265,-0.1269,-0.13,-0.1302,-0.1321,-0.1329,-0.1308,-0.1332,-0.1333,-0.1368,-0.1373,-0.138,-0.1399,-0.1402,-0.141,-0.1411,-0.1412,-0.1412,0,0,0,0,0,0,0,-0.1244,-0.1246,-0.1256,-0.1263,-0.1267,-0.1287,-0.1291,-0.1306,-0.1334,-0.131,-0.1313,-0.1316,-0.137,-0.1378,-0.1382,-0.1403,-0.141,-0.1411,-0.1412,-0.1413,-0.1515,-0.1516,0,0,0,0,0,0,-0.1234,-0.1244,-0.1254,-0.1257,-0.1258,-0.1287,-0.1291,-0.129,-0.1333,-0.134,-0.1315,-0.1318,-0.1374,-0.1379,-0.1384,-0.1453,-0.1411,-0.1413,-0.1414,-0.1513,-0.1515,-0.1517,0,0,0,0,0,0,-0.1234,-0.1235,-0.1253,-0.1251,-0.1255,-0.1286,-0.1284,-0.129,-0.1321,-0.1336,-0.1345,-0.1343,-0.1375,-0.1382,-0.1426,-0.1454,-0.1414,-0.1416,-0.1511,-0.1514,-0.1516,-0.1543,0,0,0,0,0,0,-0.1233,-0.1234,-0.1242,-0.125,-0.1255,-0.1273,-0.1283,-0.129,-0.1319,-0.1324,-0.1362,-0.1368,-0.1376,-0.1424,-0.1428,-0.1455,-0.1417,-0.1509,-0.1512,-0.1515,-0.154,-0.1546,-0.1551,0,0,0,0,0,-0.1233,-0.1237,-0.1241,-0.1243,-0.1259,-0.1274,-0.1279,-0.1304,-0.132,-0.1336,-0.1369,-0.1368,-0.1446,-0.1426,-0.1431,-0.146,-0.1508,-0.1511,-0.1515,-0.1537,-0.1545,-0.1551,0,0,0,0,0,0,-0.1243,-0.1242,-0.1248,-0.1254,-0.1269,-0.1282,-0.1299,-0.1315,-0.1352,-0.1364,-0.1383,-0.1392,-0.144,-0.1449,-0.1426,-0.15,-0.1478,-0.1483,-0.1494,-0.1501,-0.1506,-0.15,-0.1419,0,0,0,0,0,-0.1244,-0.1247,-0.1252,-0.1262,-0.1267,-0.1287,-0.13,-0.1315,-0.1342,-0.136,-0.1388,-0.1422,-0.1454,-0.1477,-0.1499,-0.1537,-0.1528,-0.1562,-0.1567,-0.1572,-0.1572,-0.1589,-0.1595,-0.1528,-0.1528,-0.1528,0,0,-0.1253,-0.1252,-0.1256,-0.1264,-0.1277,-0.1287,-0.1299,-0.1321,-0.1342,-0.136,-0.1409,-0.1438,-0.1467,-0.1512,-0.1535,-0.1527,-0.1584,-0.1576,-0.158,-0.1578,-0.1593,-0.1599,-0.1605,-0.1531,-0.153,-0.153,0,0,-0.1261,-0.1268,-0.127,-0.1276,-0.1291,-0.1304,-0.1314,-0.1338,-0.1365,-0.1405,-0.143,-0.1479,-0.1523,-0.1555,-0.1575,-0.1625,-0.1608,-0.1638,-0.1665,-0.1682,-0.1687,-0.1691,-0.1672,-0.1675,-0.1646,-0.1646,-0.1646,0,-0.1272,-0.1266,-0.1277,-0.1276,-0.1283,-0.1312,-0.1318,-0.1347,-0.1389,-0.1415,-0.1427,-0.1515,-0.1542,-0.1602,-0.1628,-0.1636,-0.163,-0.1635,-0.1687,-0.1691,-0.1695,-0.1675,-0.1677,-0.1647,-0.1647,-0.1647,-0.1647,0,-0.1267,-0.1271,-0.1274,-0.128,-0.1297,-0.1306,-0.1336,-0.1371,-0.1408,-0.1437,-0.1507,-0.1553,-0.1607,-0.1631,-0.1647,-0.1702,-0.1681,-0.1684,-0.1664,-0.1703,-0.1679,-0.1681,-0.165,-0.1649,-0.1649,-0.1648,0,0,-0.1257,-0.1267,-0.1268,-0.1271,-0.1294,-0.1306,-0.1348,-0.1389,-0.1423,-0.1483,-0.1528,-0.1609,-0.1643,-0.1669,-0.1704,-0.1731,-0.1756,-0.1727,-0.1727,-0.1696,-0.1767,-0.1588,-0.1572,-0.1769,-0.177,-0.177,-0.1732,0,-0.1246,-0.1241,-0.1255,-0.1268,-0.1267,-0.1306,-0.134,-0.1389,-0.1441,-0.1494,-0.1563,-0.1619,-0.1656,-0.169,-0.1728,-0.1752,-0.1765,-0.1764,-0.1744,-0.1743,-0.1569,-0.157,-0.1774,-0.1733,-0.1734,-0.1734,-0.1734,0,-0.1222,-0.1223,-0.1227,-0.1251,-0.1257,-0.1281,-0.1338,-0.1372,-0.1454,-0.1494,-0.1571,-0.1623,-0.1699,-0.1711,-0.1771,-0.1769,-0.1772,-0.178,-0.1778,-0.1602,-0.1567,-0.1692,-0.1737,-0.1737,-0.1737,-0.1737,-0.1737,0,-0.1186,-0.1199,-0.1203,-0.1208,-0.1246,-0.1272,-0.1304,-0.1377,-0.1406,-0.15,-0.1527,-0.1627,-0.1661,-0.1711,-0.1737,-0.1764,-0.176,-0.1794,-0.1629,-0.1616,-0.1779,-0.1775,-0.1814,-0.1814,-0.1814,-0.1814,-0.1814,0,-0.1143,-0.1148,-0.1191,-0.1189,-0.1205,-0.1249,-0.1287,-0.1331,-0.1396,-0.142,-0.1528,-0.1547,-0.1663,-0.168,-0.172,-0.1652,-0.1744,-0.1617,-0.1592,-0.1789,-0.1787,-0.1778,-0.1775,-0.1812,-0.1813,-0.1813,-0.1813,0,-0.1089,-0.1116,-0.1124,-0.117,-0.1185,-0.1199,-0.1253,-0.1276,-0.1345,-0.1376,-0.1403,-0.1483,-0.1487,-0.1552,-0.1596,-0.1582,-0.1569,-0.1517,-0.1683,-0.1671,-0.1426,-0.1425,-0.135,-0.1344,-0.1338,-0.1333,-0.1329,0,-0.1053,-0.1054,-0.1099,-0.1103,-0.1124,-0.1156,-0.1172,-0.1242,-0.126,-0.1317,-0.1313,-0.1333,-0.1376,-0.1283,-0.137,-0.1378,-0.1376,-0.1367,-0.1441,-0.1394,-0.1378,-0.1386,-0.1392,-0.132,-0.1319,-0.1317,-0.1316,0,-0.099,-0.1021,-0.1028,-0.1036,-0.1055,-0.1062,-0.1091,-0.1088,-0.1155,-0.123,-0.1181,-0.1178,-0.1143,-0.1168,-0.1142,-0.1173,-0.1387,-0.1309,-0.1323,-0.1393,-0.1357,-0.1348,-0.1361,-0.1296,-0.1299,-0.1301,-0.1302,0,-0.0949,-0.0938,-0.0958,-0.0954,-0.0968,-0.0946,-0.098,-0.0976,-0.0991,-0.106,-0.1031,-0.1055,-0.1104,-0.1054,-0.1053,-0.1032,-0.1054,-0.1076,-0.1103,-0.1126,-0.1072,-0.0994,-0.0783,0,0,0,0,0,-0.0899,-0.0874,-0.0869,-0.0847,-0.0855,-0.0858,-0.0909,-0.095,-0.1017,-0.0942,-0.0981,-0.0944,-0.0905,-0.0924,-0.0861,-0.0971,-0.107,-0.0896,-0.1113,-0.1187,-0.121,-0.1168,0,0,0,0,0,0,-0.0859,-0.0855,-0.084,-0.0759,-0.0719,-0.0711,-0.0737,-0.0788,-0.0758,-0.0832,-0.0809,-0.0872,-0.0846,-0.09,-0.0828,-0.0836,-0.0953,-0.0919,-0.0916,-0.1174,-0.1195,-0.1213,-0.1178,0,0,0,0,0]},{"header":{"parameterUnit":"m.s-1","parameterCategory":2,"la1":30.2991,"la2":30.254,"lo1":-89.0895,"lo2":-89.0444,"dy":0.0017,"dx":0.0017,"nx":28,"ny":28,"refTime":"2023-08-12T09:00:00:Z","depth":"4","parameterNumber":3,"parameterNumberName":"V-component_of_CURRENTS"},"data":[0,0,0,0,0,0,0,0,0,0,0,0,0,0,0,0,0,0,0,0,0,0,0,0,0,0,0,0,0,0,0,0,0,0,0,0,0,0,0,0,0,0,0,0,0,0,0,0,0,0,0,0,0,0,0,0,0,0,-0.0231,-0.0231,0,-0.0229,-0.0229,-0.0229,-0.0199,-0.0198,-0.0197,-0.0196,-0.0164,-0.0163,-0.0163,0,0,0,0,0,0,0,0,0,0,0,0,0,-0.0205,-0.0205,-0.0231,-0.0231,-0.0231,-0.0229,-0.0229,-0.0229,-0.0199,-0.0198,-0.0197,-0.0196,-0.0164,-0.0163,-0.0163,0,0,0,0,0,0,0,0,0,0,0,0,0,-0.021,-0.0205,-0.0231,-0.0216,-0.0214,-0.0229,-0.0229,-0.0229,-0.0199,-0.0198,-0.0197,-0.0196,-0.0164,-0.0163,-0.0163,-0.0183,0,0,-0.0162,-0.0162,0,0,0,0,0,0,0,0,-0.021,-0.0211,-0.0218,-0.0217,-0.0215,-0.0213,-0.0208,-0.0212,-0.0199,-0.0204,-0.0196,-0.0195,-0.0179,-0.0177,-0.0179,-0.0182,-0.0181,-0.0162,-0.0162,-0.0162,-0.0162,0,0,0,0,0,0,0,-0.021,-0.0211,-0.0229,-0.0218,-0.0216,-0.0208,-0.0208,-0.0209,-0.0197,-0.0204,-0.0202,-0.0203,-0.0177,-0.0179,-0.0178,-0.018,-0.0162,-0.0162,-0.0162,-0.0162,-0.0192,-0.0193,0,0,0,0,0,0,-0.0213,-0.0211,-0.023,-0.0229,-0.0211,-0.021,-0.0209,-0.0215,-0.0197,-0.0194,-0.0204,-0.0201,-0.018,-0.0178,-0.0176,-0.021,-0.0162,-0.0162,-0.0162,-0.0191,-0.0192,-0.0193,0,0,0,0,0,0,-0.0212,-0.0214,-0.023,-0.022,-0.0221,-0.0211,-0.0218,-0.0215,-0.0218,-0.0198,-0.0193,-0.0209,-0.0179,-0.0177,-0.0182,-0.0208,-0.0162,-0.0161,-0.019,-0.0191,-0.0192,-0.027,0,0,0,0,0,0,-0.0211,-0.0214,-0.0224,-0.0221,-0.0222,-0.0246,-0.0219,-0.0216,-0.0221,-0.0218,-0.0201,-0.0197,-0.0178,-0.0183,-0.0182,-0.0207,-0.0161,-0.0188,-0.019,-0.0192,-0.0266,-0.0274,-0.028,0,0,0,0,0,-0.0211,-0.0225,-0.0224,-0.0227,-0.0234,-0.0247,-0.0248,-0.0236,-0.0222,-0.0233,-0.0219,-0.0197,-0.0193,-0.0184,-0.0182,-0.0207,-0.0188,-0.019,-0.0192,-0.0263,-0.0272,-0.028,0,0,0,0,0,0,-0.0216,-0.0223,-0.0222,-0.0238,-0.0247,-0.0242,-0.0249,-0.0244,-0.0243,-0.0239,-0.0213,-0.0209,-0.0224,-0.0205,-0.0195,-0.022,-0.0186,-0.0188,-0.0241,-0.0249,-0.0256,-0.0249,-0.0161,0,0,0,0,0,-0.0225,-0.024,-0.0243,-0.026,-0.0262,-0.0259,-0.0264,-0.0261,-0.0258,-0.0256,-0.0247,-0.0236,-0.0234,-0.0232,-0.0228,-0.0245,-0.0193,-0.0258,-0.0265,-0.0271,-0.0264,-0.0209,-0.021,-0.02,-0.02,-0.02,0,0,-0.0232,-0.0239,-0.0247,-0.0263,-0.0265,-0.0292,-0.0259,-0.0273,-0.0299,-0.0254,-0.0282,-0.0265,-0.0244,-0.0262,-0.0267,-0.0248,-0.0248,-0.0274,-0.028,-0.0268,-0.0212,-0.0212,-0.0213,-0.0202,-0.0201,-0.0201,0,0,-0.0261,-0.026,-0.0285,-0.03,-0.0314,-0.0317,-0.0324,-0.0331,-0.0332,-0.0359,-0.033,-0.0323,-0.0332,-0.0315,-0.0308,-0.0351,-0.029,-0.0355,-0.0385,-0.0333,-0.0333,-0.0332,-0.0269,-0.0262,-0.0357,-0.0357,-0.0357,0,-0.0272,-0.0304,-0.0295,-0.0328,-0.0348,-0.0333,-0.0371,-0.0377,-0.0388,-0.039,-0.0378,-0.0371,-0.0355,-0.0359,-0.0371,-0.0368,-0.0319,-0.0357,-0.0341,-0.0339,-0.0337,-0.0272,-0.0263,-0.0361,-0.036,-0.036,-0.036,0,-0.0319,-0.0352,-0.0367,-0.0407,-0.0428,-0.0456,-0.0466,-0.0482,-0.0481,-0.048,-0.0485,-0.0457,-0.0445,-0.0445,-0.0422,-0.0408,-0.0372,-0.0358,-0.0318,-0.0342,-0.0273,-0.0262,-0.0366,-0.0365,-0.0364,-0.0363,0,0,-0.033,-0.0389,-0.0397,-0.0433,-0.0473,-0.0494,-0.0535,-0.0558,-0.0571,-0.0572,-0.0584,-0.0569,-0.0534,-0.0521,-0.0488,-0.0441,-0.0388,-0.0395,-0.0391,-0.0329,-0.0257,-0.0206,-0.0189,-0.0368,-0.0366,-0.0365,-0.0214,0,-0.0373,-0.0444,-0.0468,-0.0545,-0.0582,-0.0593,-0.0631,-0.0649,-0.0649,-0.0658,-0.0614,-0.0616,-0.057,-0.0562,-0.0509,-0.043,-0.0363,-0.0429,-0.0244,-0.0238,-0.0188,-0.0177,-0.0361,-0.0206,-0.0203,-0.0201,-0.02,0,-0.0416,-0.0459,-0.0537,-0.061,-0.0626,-0.0673,-0.0714,-0.0745,-0.0744,-0.0738,-0.0716,-0.0686,-0.0636,-0.0589,-0.0439,-0.0483,-0.0368,-0.029,-0.0282,-0.0197,-0.0167,-0.0175,-0.018,-0.0181,-0.0183,-0.0184,-0.0185,0,-0.0425,-0.0511,-0.0573,-0.0601,-0.0677,-0.0712,-0.0746,-0.0767,-0.0784,-0.0784,-0.0787,-0.0727,-0.0698,-0.0564,-0.042,-0.0421,-0.0239,-0.0222,-0.0057,-0.0052,-0.0109,-0.0111,-0.0082,-0.0082,-0.0083,-0.0083,-0.0083,0,-0.0464,-0.0518,-0.0582,-0.0621,-0.0692,-0.0734,-0.0793,-0.0812,-0.083,-0.0843,-0.0822,-0.0802,-0.0686,-0.0582,-0.0431,-0.0217,-0.0241,-0.0046,-0.0006,-0.0146,-0.0154,-0.01,-0.0104,-0.0077,-0.0078,-0.008,-0.0081,0,-0.048,-0.0521,-0.0598,-0.0676,-0.0704,-0.0753,-0.0829,-0.0859,-0.0872,-0.0888,-0.0892,-0.085,-0.0705,-0.0569,-0.0356,-0.0229,-0.0037,0.0055,-0.0104,-0.0078,0.0125,0.0115,0.0263,0.0267,0.0269,0.0271,0.0273,0,-0.0497,-0.0536,-0.0627,-0.0672,-0.0717,-0.0788,-0.0836,-0.0875,-0.0895,-0.0897,-0.0894,-0.0801,-0.074,-0.0412,-0.0267,0.0019,0.0071,0.0163,0.0154,0.0139,0.0163,0.0148,0.0135,0.0277,0.0278,0.0279,0.0279,0,-0.053,-0.0558,-0.0616,-0.0695,-0.0761,-0.0832,-0.0892,-0.09,-0.0927,-0.0941,-0.0857,-0.0724,-0.056,-0.0359,-0.0156,0.0052,0.0086,0.0192,0.0188,0.0181,0.0158,0.0175,0.0159,0.0289,0.0287,0.0286,0.0286,0,-0.0547,-0.0584,-0.0648,-0.0717,-0.0797,-0.0854,-0.0887,-0.0889,-0.0898,-0.0875,-0.0837,-0.069,-0.0618,-0.0337,-0.0144,0.0046,0.0119,0.0185,0.0183,0.0175,0.0095,0.0048,0.0195,0,0,0,0,0,-0.0562,-0.06,-0.0667,-0.0746,-0.0821,-0.0865,-0.0917,-0.0934,-0.0939,-0.0862,-0.0841,-0.0676,-0.0396,-0.0301,-0.0088,-0.0088,0.0135,0.0167,0.0207,0.0339,0.0329,0.0253,0,0,0,0,0,0,-0.0576,-0.0636,-0.0662,-0.075,-0.0802,-0.0885,-0.0915,-0.0922,-0.0861,-0.0839,-0.0689,-0.0614,-0.0348,-0.0515,-0.0084,-0.0032,0.0028,0.0289,0.0294,0.0345,0.0336,0.0327,0.0246,0,0,0,0,0]}]]